This is the latest recevied weather packets stored in our database for station/object K1TTC. If no packets are shown the sender has not sent any weather packets the latest 10 day(s).
| Time | Temp. | Humidity | Pressure | Rain* | Wind** | Luminosity | Snow |
|---|---|---|---|---|---|---|---|
| 1787838355 | 21.67° C | 74% | 1020 hPa | 0 mm | - | 265 W/m² | - |
| 1787837754 | 21.67° C | 74% | 1020 hPa | 0 mm | - | 178 W/m² | - |
| 1787837154 | 21.67° C | 75% | 1019.9 hPa | 0 mm | - | 185 W/m² | - |
| 1787836691 | 21.67° C | 78% | 1019.9 hPa | 0 mm | - | 221 W/m² | - |
| 1787835956 | 20.56° C | 79% | 1019.9 hPa | 0 mm | - | 408 W/m² | - |
| 1787835385 | 20.56° C | 80% | 1019.9 hPa | 0 mm | - | 490 W/m² | - |
| 1787834755 | 20° C | 80% | 1020.2 hPa | 0 mm | - | 468 W/m² | - |
| 1787834155 | 19.44° C | 80% | 1020.2 hPa | 0 mm | - | 478 W/m² | - |
| 1787833552 | 19.44° C | 80% | 1020.2 hPa | 0 mm | - | 105 W/m² | - |
| 1787832952 | 18.89° C | 80% | 1020.1 hPa | 0 mm | - | 134 W/m² | - |
| 1787832352 | 18.33° C | 80% | 1020.1 hPa | 0 mm | - | 132 W/m² | - |
| 1787831762 | 17.78° C | 79% | 1020 hPa | 0 mm | - | 81 W/m² | - |
| 1787831146 | 17.78° C | 79% | 1020.1 hPa | 0 mm | - | 62 W/m² | - |
| 1787830545 | 17.22° C | 78% | 1020 hPa | 0 mm | - | 35 W/m² | - |
| 1787829945 | 17.22° C | 77% | 1020.1 hPa | 0 mm | - | 53 W/m² | - |
| 1787829347 | 16.67° C | 77% | 1020.2 hPa | 0 mm | - | 42 W/m² | - |
| 1787828746 | 16.67° C | 76% | 1020.1 hPa | 0 mm | - | 37 W/m² | - |
| 1787828145 | 16.67° C | 76% | 1020.1 hPa | 0 mm | - | 19 W/m² | - |
| 1787827547 | 16.67° C | 76% | 1020 hPa | 0 mm | - | 16 W/m² | - |
| 1787827026 | 17.22° C | 76% | 1019.8 hPa | 0 mm | - | 19 W/m² | - |
| 1787826346 | 17.22° C | 76% | 1019.8 hPa | 0 mm | - | 9 W/m² | - |
| 1787825824 | 17.22° C | 76% | 1019.7 hPa | 0 mm | - | 0 W/m² | - |
| 1787825138 | 17.22° C | 76% | 1019.6 hPa | 0 mm | - | 0 W/m² | - |
| 1787824629 | 17.22° C | 76% | 1019.5 hPa | 0 mm | - | 0 W/m² | - |
| 1787823939 | 17.22° C | 75% | 1019.5 hPa | 0 mm | - | 0 W/m² | - |
* Rain latest hour (hover to see other rain measurements)
** Current wind speed in m/s (hover to see current wind gust speed)